Regional Weather Roundup
Issued by NWS

Home | Current Version | Previous Version | Text Only | Print | Product List | Glossary On
Versions: 1 2 3 4 5 6 7 8 9 10 11 12 13 14 15 16 17 18 19 20 21 22 23 24 25 26 27 28 29 30 31 32 33 34 35 36 37 38 39 40 41 42 43 44 45 46 47 48 49 50
000
ASUS46 KSTO 040704
RWRCA

NORTHERN AND CENTRAL CA REGIONAL WEATHER ROUNDUP
NATIONAL WEATHER SERVICE SACRAMENTO CA
1200 AM PDT WED MAY 04 2016

NOTE: FAIR INDICATES FEW OR NO CLOUDS BELOW 12,000 FEET WITH NO
SIGNIFICANT WEATHER AND/OR OBSTRUCTIONS TO VISIBILITY.

CAZ001-003-040800-
NORTHWEST AREA

CITY           SKY/WX    TMP DP  RH WIND       PRES   REMARKS
CRESCENT CITY  CLOUDY    52  52 100 N5        29.95F FOG
UKIAH          CLOUDY    62  55  77 CALM      29.91S
$$

CAZ006-505>513-040800-
BAY AREA

CITY           SKY/WX    TMP DP  RH WIND       PRES   REMARKS
SANTA ROSA     CLOUDY    53  51  93 S3        29.91F
SAN RAFAEL     N/A       60  MM  MM MISG
NAPA           CLOUDY    56  51  84 SW7       29.91F
CONCORD        CLOUDY    64  49  57 W3        29.90F
OAKLAND CITY   N/A       59  MM  MM MISG
OAKLAND        CLOUDY    57  51  80 W9        29.93F
SAN FRAN CITY  N/A       54  MM  88 MISG
SAN FRAN ARPT  MOCLDY    53  52  96 W18       29.94S
LIVERMORE      CLOUDY    61  46  57 W7        29.91S
HAYWARD        MOCLDY    57  51  80 NW9       29.92F
REDWOOD CITY   N/A       MM  MM  MM MISG
MOFFETT ARPT   MOCLDY    58  52  80 NW5       29.93F
SAN JOSE ARPT  MOCLDY    59  53  80 W6        29.93S
$$
CAZ034-037-514>518-040800-
CENTRAL COAST

CITY           SKY/WX    TMP DP  RH WIND       PRES   REMARKS
WATSONVILLE    MOCLDY    53  51  93 E3        29.94F
SALINAS        MOCLDY    55  50  83 W6        29.94S
MONTEREY       MOCLDY    53  51  93 SW10      29.95S
SAN LUIS OBISP MOCLDY    54  50  86 CALM      29.95S
SANTA MARIA    CLOUDY    54  52  93 SE3       29.96S
$$
CAZ015-016-040800-
NORTHERN SACRAMENTO VALLEY

CITY           SKY/WX    TMP DP  RH WIND       PRES   REMARKS
REDDING        MOCLDY    67  50  54 NW5       29.88S
RED BLUFF      MOCLDY    62  53  72 N5        29.88F
OROVILLE       PTCLDY    64  56  75 CALM      29.88S
$$
CAZ016>018-040800-
SOUTHERN SACRAMENTO VALLEY

CITY           SKY/WX    TMP DP  RH WIND       PRES   REMARKS
AUBURN         MOCLDY    66  46  48 SE7       29.93S
BEALE AFB      MOCLDY    66  53  63 NE6       29.84S
LINCOLN        FAIR      57  52  82 SE5       29.86R
MARYSVILLE     PTCLDY    60  55  83 CALM      29.86S
SAC INTL ARPT  MOCLDY    65  53  65 CALM      29.85F
MATHER AIRPORT NOT AVBL
DOWNTOWN SAC   N/A       66  MM  MM MISG
SAC EXEC ARPT  MOCLDY    63  51  65 SW5       29.87S
VACAVILLE      CLOUDY    66  53  63 SW3       29.87F
TRAVIS AFB     CLOUDY    60  52  74 SW13      29.85F
$$
CAZ019>021-040800-
SAN JOAQUIN VALLEY

CITY           SKY/WX    TMP DP  RH WIND       PRES   REMARKS
STOCKTON       MOCLDY    66  53  63 W7        29.86F
MODESTO        MOCLDY    70  53  54 NW6       29.86R
MERCED         MOCLDY    67  54  63 W3        29.86S
LEMOORE        MOCLDY    70  50  49 NW9       29.87R
FRESNO         MOCLDY    71  56  58 NW12      29.86S
HANFORD        PTCLDY    71  53  52 NW10      29.86R
PORTERVILLE    CLEAR     62  48  60 SE7       29.88R
BAKERSFIELD    CLEAR     73  43  33 N7        29.88R
$$
CAZ011-012-071-040800-
NORTHERN MOUNTAINS

CITY           SKY/WX    TMP DP  RH WIND       PRES   REMARKS
YREKA          CLOUDY    54  48  80 E5        30.02S
MOUNT SHASTA   CLOUDY    50  43  77 CALM      30.03F
ALTURAS        CLOUDY    54  44  69 NE6       30.07F
$$
CAZ011-012-071-040800-
SIERRA NEVADA MTNS

CITY           SKY/WX    TMP DP  RH WIND       PRES   REMARKS
BLUE CANYON    MOCLDY    54  28  36 E3        30.08F
TAHOE VLY ARPT PTCLDY    40  37  89 S5        30.13S
MAMMOTH LAKES  FAIR      44  31  62 CALM      30.17S
$$




USA.gov is the U.S. government's official web portal to all federal, state and local government web resources and services.